Wind_Speed
2 3 1 4 5 6 6 6 6 5 6 4 3 4 6 5 7 6 4 5 4 3 8 8 9 10 8 8 14 23 24 19 19 22 23 25 26 26 22 18 16 12 9 7 5 4 5 6 10 15 19 22 23 25 26 28 29 30 32 33 33 33 34 35 37 40 41 43 46 48 49 51 52 52 53 54 54 55 55 53 51 48 45 44 40 37
3 2 4 8 8 7 6 5 3 2 3 3 3 4 6 5 8 8 5 4 2 3 6 5 6 10 9 8 11 18 17 17 24 25 25 28 27 26 24 19 17 14 9 8 7 5 5 7 11 15 19 22 23 25 26 28 29 29 30 31 31 32 33 35 37 39 40 42 45 47 49 51 53 53 54 56 56 57 57 54 52 50 49 48 46 42
4 4 9 9 5 5 2 1 2 3 3 2 1 1 5 4 5 8 5 2 1 2 5 5 5 8 9 9 9 16 18 21 30 31 30 33 30 28 26 21 19 16 11 8 7 5 4 7 11 15 18 21 23 24 25 27 28 28 29 29 30 32 33 34 36 38 40 42 43 45 47 49 52 53 54 56 57 57 58 56 53 51 48 46 47 45
2 6 8 4 6 6 1 1 3 1 2 3 2 1 5 4 2 5 5 4 3 2 4 7 7 6 7 10 9 16 22 20 25 27 28 32 32 29 27 22 19 18 13 8 6 4 4 7 10 13 17 20 22 24 25 26 27 27 28 28 30 31 32 34 35 37 39 41 43 44 46 48 50 51 53 55 56 57 58 58 55 52 48 45 44 44
6 7 3 6 6 5 2 0 4 3 4 4 5 5 7 6 5 7 4 4 5 4 3 6 8 6 7 13 11 7 12 13 18 22 24 29 31 26 24 22 18 16 13 9 6 4 5 6 9 13 17 20 22 23 24 25 26 26 27 28 29 30 32 33 35 38 40 42 44 46 48 50 51 53 54 55 57 59 60 59 56 52 50 48 45 44
8 5 4 7 3 4 4 3 4 7 3 5 5 9 10 9 8 6 5 5 4 4 4 3 5 6 2 8 9 2 4 9 13 18 22 27 29 26 26 24 18 15 13 9 7 5 5 6 9 13 17 20 22 22 22 23 25 26 27 28 29 31 32 34 35 38 40 43 45 47 50 51 53 56 56 56 56 58 58 58 57 53 50 50 47 43
3 1 4 6 4 4 3 5 5 7 3 3 5 6 7 6 5 4 4 3 2 3 4 2 1 8 2 3 8 6 7 9 9 12 19 26 29 29 29 25 21 17 15 11 8 7 6 6 9 12 16 19 21 21 21 23 25 26 27 28 30 31 32 34 35 38 40 42 44 46 47 48 48 51 55 56 56 56 55 55 55 53 50 49 46 41
2 1 3 4 5 4 3 5 5 7 6 3 4 3 4 3 3 3 0 2 3 2 6 2 4 7 7 6 8 8 10 9 9 11 15 23 30 30 30 27 23 19 16 13 10 8 7 7 9 11 14 18 20 21 21 23 25 26 28 29 30 32 33 34 35 38 40 42 44 45 47 47 47 47 52 55 56 56 55 54 54 52 50 48 44 42
3 4 5 5 4 3 6 6 7 9 4 5 5 3 2 3 4 2 2 4 2 3 7 5 6 4 8 5 2 5 9 10 13 15 15 22 29 30 31 29 25 20 16 14 12 9 8 7 9 10 14 17 19 20 21 23 25 27 29 30 31 32 33 35 36 38 40 41 43 45 46 48 48 49 51 53 55 55 55 54 54 52 51 49 46 45
2 4 7 7 5 5 6 4 6 9 4 3 3 2 2 1 1 1 2 2 2 2 9 7 7 4 7 4 1 2 6 12 14 14 15 21 27 29 32 31 26 21 18 15 13 10 8 8 9 11 14 17 19 20 22 24 26 28 30 31 32 33 34 35 36 38 40 41 43 44 46 47 49 50 51 54 55 55 54 54 54 53 52 51 49 47
2 1 2 4 4 5 4 2 2 4 3 3 4 3 4 4 3 2 1 2 3 3 10 8 11 8 6 3 6 5 6 11 12 11 13 18 24 29 33 33 27 22 20 17 14 10 8 8 9 12 15 17 19 20 22 24 27 29 31 33 33 34 35 36 37 38 39 41 42 43 45 46 47 48 50 53 54 55 54 53 54 53 52 51 50 48
4 0 2 2 3 5 6 4 3 3 3 4 4 3 4 5 3 4 4 3 1 5 7 5 8 8 7 6 6 8 8 7 10 12 15 18 24 32 35 33 28 23 21 18 14 11 8 8 9 12 15 17 19 20 22 25 29 31 32 33 35 35 35 36 37 38 40 41 42 43 44 45 46 47 48 50 52 53 53 53 54 53 53 53 51 49
2 4 3 1 2 5 6 4 2 5 5 4 3 3 3 4 3 3 3 0 3 7 4 1 4 4 10 10 8 13 13 8 10 15 19 23 27 33 35 33 28 24 21 18 15 11 9 8 10 12 15 17 18 20 24 27 30 32 33 34 36 36 37 38 38 39 40 41 42 43 44 45 45 46 46 47 49 51 52 52 52 52 53 54 53 50
3 5 2 1 2 7 9 5 2 2 1 4 3 3 2 1 2 4 4 3 5 6 3 2 2 3 9 8 9 14 13 10 16 21 24 28 33 36 36 33 27 24 22 19 15 11 9 8 10 12 15 17 18 21 26 28 30 32 34 35 36 37 38 39 39 41 41 42 43 43 44 45 45 46 46 47 48 50 51 51 51 52 52 53 53 52
2 5 3 5 2 7 9 5 5 5 4 4 4 4 4 3 2 4 3 4 7 6 3 0 1 4 5 3 5 9 8 10 19 21 21 26 33 35 34 31 27 25 22 18 15 11 8 8 10 12 15 16 19 24 27 28 30 33 34 35 37 38 39 40 40 41 42 43 44 44 45 45 45 46 46 47 48 49 51 51 51 52 51 52 53 52
4 6 6 1 1 7 6 3 5 6 3 2 3 4 2 4 4 3 3 4 3 5 4 3 4 6 5 3 2 1 2 5 11 14 19 24 30 32 31 30 28 26 22 18 15 10 8 8 10 12 14 17 21 25 27 28 30 33 35 36 37 38 39 40 41 42 43 44 45 46 46 47 47 47 47 48 49 50 51 51 52 52 51 52 52 51
2 5 3 2 1 3 3 2 3 2 2 2 2 3 4 4 5 2 3 1 2 3 5 3 6 6 2 4 1 4 2 3 5 10 18 24 28 30 30 30 29 25 22 19 14 10 8 8 10 12 14 18 23 25 26 28 30 32 35 36 38 39 39 40 42 43 44 45 47 47 48 49 49 49 49 49 50 51 52 52 52 51 51 51 50 50
2 4 3 2 2 2 0 1 2 2 3 4 3 5 3 2 3 2 2 2 1 4 5 2 8 10 3 3 2 3 4 6 6 7 12 18 23 25 27 30 29 25 21 17 14 10 8 8 10 12 16 20 22 24 26 28 30 32 34 36 38 39 40 41 42 44 45 46 47 49 49 50 50 50 50 50 51 52 53 53 52 51 50 50 50 49
2 3 5 1 1 2 2 2 1 2 2 5 3 3 2 2 2 2 1 2 1 4 7 3 6 11 7 4 4 6 10 12 9 8 9 13 19 22 26 30 28 24 21 17 14 10 8 8 11 14 17 20 21 24 26 28 30 32 34 35 37 38 40 41 43 44 45 46 48 49 50 50 51 50 50 51 52 53 53 53 52 51 50 50 50 49
3 1 4 1 2 2 2 1 4 2 1 2 1 2 1 2 3 2 2 2 2 4 8 5 6 8 6 6 9 12 15 15 12 11 11 15 20 24 27 30 29 25 22 18 14 9 8 8 12 15 17 19 21 24 26 28 31 32 34 36 37 38 39 40 42 44 46 47 48 50 51 51 51 51 51 52 52 53 53 53 52 51 50 50 50 48
3 2 3 2 3 1 3 4 7 8 5 3 2 2 2 2 1 2 2 2 3 4 6 5 9 10 3 4 8 13 15 16 15 15 14 16 22 26 29 32 30 26 22 17 13 8 8 9 12 14 16 18 21 25 27 28 31 33 34 36 37 39 40 41 43 44 46 48 48 50 51 52 52 52 53 53 53 53 53 53 51 50 49 50 50 48
3 3 4 1 1 4 5 5 6 8 8 7 6 7 7 6 2 3 5 3 3 5 5 2 11 13 3 3 5 9 11 12 15 17 14 17 25 29 31 32 29 25 21 15 10 7 8 9 11 13 15 19 22 25 27 29 31 33 35 36 37 39 40 42 43 45 47 48 49 50 51 53 53 52 53 54 53 53 52 52 50 49 50 49 49 48
3 2 3 4 5 5 4 2 1 2 3 3 5 6 6 6 6 6 9 3 2 5 3 1 11 14 3 4 4 6 9 12 19 21 16 18 27 31 31 31 27 22 18 12 8 7 7 9 11 13 16 19 23 25 27 29 31 33 35 36 38 39 40 42 43 45 47 48 49 51 51 52 52 53 54 54 54 53 53 53 51 48 49 48 49 49
3 2 3 5 5 1 2 4 4 4 3 2 5 5 7 9 10 9 6 1 2 6 3 2 12 13 3 2 2 3 5 11 21 26 21 20 27 31 31 29 25 20 16 11 7 6 7 8 10 13 16 20 23 25 27 29 31 33 35 37 38 39 40 42 43 45 47 48 50 51 51 52 52 52 54 55 54 53 53 54 52 48 47 48 50 50
5 2 3 2 6 4 3 3 3 3 0 4 5 5 9 13 9 3 1 1 4 7 7 5 14 11 2 2 2 2 4 8 13 21 23 23 26 29 30 28 24 19 15 11 7 6 6 7 10 13 17 20 22 25 26 29 31 34 36 37 39 40 41 42 44 45 47 48 50 52 52 51 52 53 54 55 55 53 53 54 51 49 50 49 49 50
8 3 5 5 5 7 8 5 3 3 3 3 4 7 11 14 13 6 2 5 9 7 8 9 15 13 5 1 1 3 6 7 9 15 21 25 28 30 31 28 23 19 15 11 8 6 5 7 10 13 17 20 22 25 27 29 32 34 36 38 39 40 42 43 44 45 47 48 50 51 51 51 52 53 55 56 56 55 55 54 48 47 53 53 48 46
4 2 7 10 10 12 14 11 3 5 3 5 6 11 13 14 15 10 6 10 10 4 8 17 18 19 18 8 5 6 7 9 10 12 16 22 27 31 32 28 23 20 15 10 8 6 5 7 10 13 16 19 21 24 27 29 32 35 37 38 39 40 41 43 44 46 47 48 49 50 51 51 53 54 55 56 56 55 54 53 49 45 49 53 48 43
3 5 11 12 15 18 19 16 5 4 8 12 12 13 13 13 14 14 15 17 8 2 13 24 19 21 26 16 9 10 11 10 9 12 18 24 29 32 31 27 23 19 14 11 9 7 6 7 10 13 15 18 21 24 26 29 32 34 37 39 39 40 41 43 44 46 47 48 49 50 51 52 54 55 56 56 57 57 55 55 56 51 46 47 47 44
3 8 11 9 15 21 20 17 9 7 11 13 18 20 13 12 17 21 23 21 13 10 19 26 22 23 25 18 12 12 12 13 15 20 26 28 30 31 29 27 24 19 15 12 10 8 6 7 9 12 15 18 21 24 27 29 32 34 37 39 39 40 41 43 44 46 47 48 49 51 52 53 54 56 57 57 57 57 55 52 52 52 47 43 43 45
4 8 8 8 13 18 18 15 10 12 13 14 24 27 15 14 20 22 22 23 21 21 25 28 28 29 26 19 14 12 17 21 22 24 26 25 28 31 30 29 25 19 16 14 11 8 5 6 9 11 14 18 21 24 27 30 32 35 37 39 40 40 41 43 44 45 47 49 50 52 53 54 56 56 57 57 56 56 54 51 48 48 48 45 43 43
5 5 3 5 7 15 17 12 8 11 12 16 29 29 17 15 19 20 21 22 20 22 28 29 26 26 26 21 14 12 17 20 17 18 23 26 31 33 31 29 25 20 17 14 10 5 3 6 8 11 14 17 21 24 27 30 32 35 37 38 39 41 41 43 44 46 47 49 50 52 53 54 56 57 56 56 56 55 55 54 51 49 48 48 46 43
5 3 1 4 5 12 9 2 2 3 5 15 31 31 19 17 19 19 19 20 20 22 26 22 18 21 21 12 6 8 13 13 12 16 23 27 32 34 32 29 25 20 17 12 7 3 3 5 7 11 14 16 20 23 26 30 32 34 37 38 39 41 41 42 44 45 47 48 50 52 53 54 55 56 56 55 56 56 54 54 53 51 49 46 45 43
6 5 2 4 6 10 2 5 5 2 3 13 21 19 17 20 22 20 17 21 24 21 17 14 16 21 16 4 3 7 9 10 13 20 26 28 31 33 32 30 24 18 15 10 5 3 2 4 7 10 13 16 19 23 26 29 32 34 36 38 39 40 41 42 43 45 46 48 50 51 51 53 55 55 55 55 55 55 55 54 53 52 51 47 43 42
6 7 4 5 5 6 1 5 5 2 8 12 6 4 11 17 21 21 20 24 25 18 15 17 20 21 14 8 10 9 10 15 21 28 33 33 34 34 31 27 21 17 13 9 5 3 2 3 6 9 12 16 18 22 25 28 31 33 35 37 38 39 40 41 42 44 46 48 49 50 51 53 54 55 55 55 56 56 55 55 54 52 51 48 44 42
9 9 5 3 3 2 2 4 2 8 11 7 0 4 9 12 15 18 21 26 24 17 17 21 24 24 18 15 15 12 15 22 25 28 32 34 37 37 31 25 21 17 13 9 6 3 1 2 5 8 12 15 18 21 25 27 30 33 34 36 38 38 39 41 42 44 46 47 48 49 50 52 54 55 56 56 57 57 56 55 54 53 50 46 42 40
10 8 4 3 3 1 2 4 9 11 12 13 7 4 4 4 5 7 14 23 21 16 17 20 23 25 21 18 15 11 13 16 15 19 27 32 34 33 29 24 21 16 12 8 6 4 1 2 5 8 11 15 18 21 24 27 30 33 34 35 37 38 39 40 42 44 45 47 48 49 50 52 54 55 56 57 58 59 58 56 54 52 49 46 41 38
9 8 5 5 5 5 7 10 10 8 17 22 15 4 5 5 7 7 9 19 14 11 15 18 20 23 18 10 6 10 13 10 6 10 23 29 27 24 23 20 18 14 11 9 7 4 1 2 5 8 11 15 18 21 24 27 30 32 34 35 36 38 38 40 42 43 45 46 47 48 49 51 53 55 56 57 57 59 58 57 55 51 47 45 43 39
9 9 8 7 7 7 8 10 7 6 14 16 7 2 3 5 7 8 3 13 11 9 15 16 18 20 12 3 11 17 16 8 2 8 21 27 25 22 20 19 16 13 11 9 7 4 1 2 5 8 12 15 18 21 24 27 30 32 34 35 36 37 38 40 41 43 44 45 46 47 48 50 52 54 55 56 57 58 58 56 54 51 45 42 42 39
9 7 6 6 6 6 7 9 7 9 15 9 2 1 4 12 11 8 3 9 9 9 16 16 15 15 7 10 16 15 10 6 6 10 24 30 27 25 24 21 17 13 11 10 7 3 2 3 6 8 12 15 17 21 24 26 29 31 33 34 35 37 38 39 41 42 43 45 45 46 47 48 51 53 54 55 56 56 56 54 51 48 43 39 37 35
7 5 4 5 10 10 9 9 6 7 11 5 5 3 8 17 15 8 3 9 5 8 15 15 11 11 11 17 17 11 8 11 9 11 28 35 28 26 24 19 16 14 12 10 7 4 4 4 6 9 12 15 18 21 23 26 29 30 32 33 34 36 38 38 39 41 42 43 44 45 45 47 49 52 52 53 54 54 54 51 48 45 41 37 34 32
3 4 4 7 12 13 12 9 6 7 8 5 8 10 14 15 10 1 7 8 5 8 14 16 14 14 18 22 18 12 13 13 7 13 31 35 30 28 24 17 16 14 11 9 7 5 5 5 7 9 12 15 18 21 23 25 28 29 31 32 33 35 36 37 38 40 41 42 43 44 44 45 47 51 51 51 52 53 52 49 45 42 39 37 34 31
3 3 4 7 7 7 8 7 5 9 7 11 16 19 19 10 2 7 6 7 13 14 16 17 18 19 25 28 24 19 16 12 10 20 34 36 32 31 26 19 17 15 11 10 8 6 6 5 7 9 12 15 17 20 23 24 27 29 30 32 33 34 35 36 37 39 40 41 42 43 44 45 46 49 51 50 50 52 51 48 43 39 37 36 34 33
7 5 4 7 6 3 3 5 4 9 7 22 22 13 11 9 9 7 7 8 14 20 19 18 20 23 27 29 25 19 16 15 19 27 34 34 31 29 25 20 16 14 12 11 9 7 6 6 8 10 12 15 17 20 22 24 26 28 30 31 32 33 35 35 36 38 39 40 41 42 43 44 46 48 50 50 50 50 51 48 43 39 36 35 35 36
7 7 5 6 6 6 5 10 8 5 10 31 26 9 16 27 19 10 11 9 10 18 22 20 21 25 28 28 25 21 20 22 26 30 33 33 30 26 23 19 15 14 13 12 10 9 7 7 8 10 12 14 16 19 21 23 25 27 29 31 32 33 34 34 35 37 38 39 40 41 42 43 45 47 49 50 50 50 50 48 43 39 37 36 37 39
12 12 6 4 7 8 8 11 7 3 14 36 32 13 19 33 25 13 15 16 15 20 23 22 21 25 27 28 27 26 25 26 29 30 31 31 29 26 22 18 16 15 14 12 11 9 7 8 8 9 12 14 16 18 20 22 25 26 28 30 31 32 34 34 35 36 37 38 39 40 41 43 44 46 48 49 50 50 50 48 43 38 38 37 37 39
8 8 3 1 5 8 11 12 8 5 12 32 37 22 16 24 26 20 18 18 20 23 23 22 23 26 28 29 29 28 28 28 29 29 28 29 28 25 21 19 17 16 15 14 12 10 8 8 8 9 12 14 16 17 19 21 23 25 28 29 30 31 32 33 35 35 36 37 38 39 41 42 44 45 47 48 49 49 47 47 43 39 38 38 38 40
4 7 5 3 4 6 11 13 13 14 17 26 35 32 22 22 27 28 23 20 20 23 24 23 22 24 29 31 30 29 29 28 29 29 28 28 27 25 22 19 19 18 16 14 12 10 9 8 8 9 11 13 15 16 18 20 22 24 26 27 29 30 31 32 33 34 35 36 37 38 40 41 43 44 46 48 50 49 47 45 44 40 38 38 40 41
6 11 9 9 9 10 13 10 4 10 23 29 32 33 29 26 28 29 27 24 21 21 23 24 23 24 29 31 30 29 28 28 29 29 29 28 26 25 23 21 20 19 17 14 12 10 9 7 8 9 11 13 14 16 17 19 21 23 24 26 27 29 30 31 31 33 34 35 36 37 38 40 41 43 45 46 48 49 48 47 45 42 38 37 38 40
9 11 8 8 11 12 19 13 3 1 13 21 28 36 37 34 33 31 28 26 24 22 24 25 25 25 27 30 30 28 27 29 29 27 28 28 27 26 25 23 21 19 17 14 12 10 9 7 8 9 10 12 14 15 16 18 20 22 23 25 27 28 29 30 30 31 33 34 35 36 37 38 39 41 43 45 46 47 47 46 46 45 40 35 33 33
10 10 6 5 8 12 18 18 12 7 9 16 28 40 41 35 34 35 32 29 28 27 27 28 27 26 27 30 30 27 28 30 29 27 27 27 28 28 27 24 22 20 17 14 13 11 9 7 7 8 10 12 13 14 16 18 19 21 22 23 25 27 28 29 30 31 32 33 34 36 36 37 38 39 41 44 45 46 46 45 44 45 43 38 32 28
16 16 12 11 14 19 21 21 20 16 14 19 26 36 40 38 37 38 37 36 34 32 30 31 31 31 32 31 29 28 29 30 30 29 28 27 28 29 27 24 22 20 17 15 13 10 8 7 7 7 9 11 12 14 16 17 18 19 21 22 23 25 26 28 29 30 31 32 33 34 35 36 37 38 39 41 43 46 48 47 45 44 43 41 36 31
Wind_Direction
71 36 338 254 247 222 215 187 189 204 191 218 236 235 247 250 272 261 253 268 176 193 255 234 237 255 244 210 200 195 191 189 184 182 184 181 179 181 180 179 178 173 169 176 183 211 253 305 340 352 356 356 356 355 354 353 352 352 350 347 345 344 345 345 344 343 341 340 339 337 337 335 334 334 333 334 336 337 336 334 330 326 320 314 308 299
68 24 261 242 230 203 198 194 201 217 194 219 222 262 277 241 261 274 267 278 161 179 267 260 245 256 251 233 209 191 185 193 191 187 189 186 183 185 184 182 181 178 175 180 193 217 259 309 340 351 353 354 355 354 353 352 353 352 350 348 346 346 347 346 344 342 340 340 339 337 336 335 333 334 335 335 337 337 336 334 330 325 320 315 311 305
14 276 259 249 205 159 137 145 189 237 224 231 195 278 289 258 272 292 299 326 61 191 273 292 265 256 258 250 219 196 197 204 200 196 192 186 183 185 185 183 183 182 182 186 200 225 279 317 340 346 349 353 353 352 352 352 353 351 350 347 346 346 345 344 342 341 339 338 337 336 335 335 333 333 334 334 336 337 335 333 329 325 320 315 313 312
321 254 247 217 147 140 5 30 140 253 275 230 191 211 270 275 292 290 311 343 327 256 257 280 271 257 258 258 240 210 207 208 206 204 197 190 188 188 188 189 188 186 189 194 203 234 292 313 332 340 345 350 350 350 350 350 351 349 348 346 345 344 343 342 341 339 338 336 334 334 333 334 333 333 333 333 334 335 334 332 330 326 321 316 313 311
252 257 199 121 120 148 184 142 139 181 278 260 212 209 248 266 244 243 293 339 319 301 278 291 284 261 228 242 251 213 202 205 198 197 196 195 194 193 193 193 192 193 199 203 204 237 280 298 322 337 343 348 349 349 348 347 348 347 346 345 344 343 342 341 340 338 337 335 334 334 333 333 334 334 334 334 334 334 334 332 330 326 322 318 314 311
262 266 149 125 110 142 172 232 186 176 240 297 239 216 233 249 251 261 333 359 341 321 316 2 302 277 226 236 251 187 177 203 190 189 194 195 194 195 195 192 192 198 203 207 210 235 267 292 318 334 341 345 346 344 343 344 345 344 343 344 343 341 341 340 339 338 336 336 336 335 335 335 335 335 335 335 334 333 333 331 328 325 322 319 317 315
263 337 106 132 151 149 179 253 229 169 156 291 256 208 210 221 239 276 351 358 278 269 290 56 262 274 294 229 237 197 194 208 193 196 199 197 196 196 195 192 194 199 202 207 215 233 257 288 311 328 337 340 340 339 340 342 342 342 341 342 341 340 340 339 338 337 336 336 336 335 336 335 335 333 332 334 333 332 331 328 326 323 321 319 318 314
169 93 53 101 140 163 198 255 230 159 140 242 245 128 128 174 223 243 124 249 243 275 287 217 168 269 276 248 237 190 194 214 206 210 207 202 202 198 195 195 197 201 202 204 211 225 245 276 302 319 330 332 334 336 338 340 341 341 340 340 340 339 339 338 338 337 337 336 335 335 335 334 333 331 331 332 332 332 331 328 325 322 319 318 314 310
162 171 198 154 136 191 210 230 194 157 160 244 217 125 120 188 211 215 198 252 297 29 291 238 151 256 269 254 279 164 195 226 216 212 211 207 205 198 195 197 199 201 202 204 208 218 235 265 293 310 322 327 332 335 337 340 341 340 340 339 339 338 338 338 338 337 336 336 335 335 334 333 332 331 330 331 331 331 331 329 325 321 318 316 311 308
208 194 197 158 157 215 218 223 179 163 194 224 158 98 21 68 156 187 199 253 45 65 265 240 157 219 265 231 130 133 214 231 222 215 213 210 206 198 195 196 198 198 199 203 208 215 235 266 291 305 317 326 332 336 338 340 341 340 340 339 338 338 337 338 337 336 336 335 334 334 334 332 332 331 331 331 331 331 330 328 325 321 318 315 312 308
292 110 172 162 187 193 158 125 132 151 167 124 82 28 355 10 37 44 72 87 68 247 255 231 180 195 270 245 179 185 220 218 210 207 211 211 206 200 197 196 196 196 196 200 206 216 241 271 290 304 316 327 334 336 338 339 340 340 339 338 337 338 338 337 337 335 335 335 334 333 333 332 331 331 331 330 330 330 328 325 324 321 318 315 312 309
339 85 230 235 192 136 106 89 36 33 80 94 67 39 353 328 10 24 358 53 108 250 261 233 186 189 240 246 205 222 243 218 198 197 201 205 201 199 198 196 196 195 196 199 205 217 244 270 286 304 317 328 334 336 337 338 338 338 338 337 336 337 338 337 336 335 334 334 333 332 332 331 331 330 330 329 328 328 325 323 322 320 318 315 312 310
305 230 255 342 191 159 119 86 7 359 36 81 84 63 13 329 353 351 298 247 220 246 256 159 158 203 241 248 237 237 244 227 204 204 201 196 193 195 195 193 193 193 196 199 206 222 243 267 288 307 319 328 333 335 338 338 338 337 337 336 335 336 338 336 335 334 334 333 333 332 331 331 331 330 328 327 326 325 323 320 319 318 316 314 312 309
290 294 281 135 256 190 159 141 199 276 97 140 150 139 140 34 334 289 262 273 277 266 260 119 125 252 260 261 241 240 247 225 212 215 209 196 189 191 191 190 190 192 196 202 208 224 244 270 293 310 321 328 332 336 339 339 338 336 335 335 335 335 336 335 334 333 333 333 332 331 331 330 330 330 329 327 324 324 323 319 317 315 313 313 311 307
223 302 227 181 216 178 176 179 165 143 142 179 159 136 157 159 217 259 237 258 291 295 276 169 158 227 236 261 247 257 270 223 213 214 202 191 187 186 186 186 189 192 195 203 212 224 248 277 297 312 320 327 333 338 340 338 336 334 334 334 334 334 334 334 333 333 333 333 332 331 330 330 329 329 329 327 324 323 322 319 316 315 313 312 310 307
187 259 249 243 97 161 177 187 139 112 115 209 123 119 187 179 183 234 213 210 291 311 276 215 223 226 216 253 258 292 298 193 193 185 171 174 178 179 183 186 189 192 196 204 213 226 251 278 299 310 319 329 337 339 338 337 335 333 333 334 334 333 333 333 332 332 332 332 332 331 331 330 330 330 330 327 325 324 322 319 315 314 314 312 311 308
202 266 274 19 8 159 161 177 143 130 176 169 128 183 225 173 146 212 265 353 62 283 270 214 251 275 293 273 240 102 133 165 160 166 162 167 173 177 184 188 189 192 198 206 213 227 253 279 300 310 324 336 340 339 337 336 334 332 333 333 333 333 332 332 332 332 332 332 332 331 331 331 331 331 331 328 326 325 324 321 317 315 315 314 313 310
202 272 257 144 202 232 107 66 35 29 131 130 181 219 207 134 109 116 267 325 61 257 269 211 255 271 266 276 298 109 181 201 190 180 167 169 176 182 188 188 190 196 201 208 214 229 258 284 301 316 333 340 339 337 335 335 333 332 333 332 333 333 332 332 332 331 332 332 331 331 331 331 332 332 332 329 327 326 325 323 321 317 315 315 315 312
142 271 272 149 188 265 17 39 358 348 89 131 210 248 129 172 230 120 162 258 214 262 271 245 272 269 234 222 226 191 200 204 197 186 178 184 188 189 189 188 191 198 201 207 215 232 262 289 311 328 338 338 335 334 333 334 333 332 333 332 333 333 332 332 332 331 332 332 331 331 331 331 332 332 332 330 329 328 327 325 323 319 316 316 316 313
127 227 276 323 304 304 34 146 194 221 38 86 345 320 74 184 213 178 168 204 184 256 274 285 305 281 226 191 200 200 201 198 188 186 194 199 196 191 188 188 193 198 202 208 215 236 272 303 325 334 336 334 331 332 333 333 333 333 333 333 333 334 333 332 332 331 331 331 331 331 331 331 332 333 332 330 329 328 328 327 323 319 316 316 316 314
116 200 249 330 329 252 184 203 192 183 175 154 176 224 229 191 182 263 235 168 173 243 265 279 280 268 215 167 195 195 200 198 184 186 200 202 196 191 190 192 195 199 202 209 219 246 290 317 330 332 331 329 329 332 334 334 333 333 333 334 335 335 334 333 332 332 331 331 332 331 331 332 333 333 333 331 330 329 328 327 323 319 317 316 316 315
160 196 207 190 238 214 217 221 193 187 182 175 184 193 203 196 171 272 255 206 173 229 228 238 270 266 220 155 201 187 196 198 183 189 201 197 193 191 193 196 198 201 203 210 229 266 305 320 328 329 327 327 328 332 335 334 333 333 333 335 335 335 335 333 332 332 331 331 332 332 332 333 333 333 333 332 331 329 328 326 322 319 318 317 317 317
147 131 194 230 228 214 242 299 58 207 194 197 211 192 188 187 173 215 244 227 163 229 221 192 268 269 232 150 196 192 196 189 185 194 198 192 192 192 193 197 198 201 207 215 238 277 307 314 321 324 324 326 330 333 335 334 333 333 334 335 336 336 335 334 332 332 331 331 332 332 333 334 334 333 334 334 332 331 330 328 325 321 319 316 317 318
125 126 209 264 288 327 354 356 12 24 63 230 240 190 186 206 201 211 231 137 172 223 183 197 258 266 279 147 188 186 193 183 187 197 196 186 190 192 192 194 196 200 206 216 241 276 295 306 317 321 322 326 331 334 335 334 333 334 335 336 336 336 335 334 332 331 331 332 332 333 334 334 334 333 335 335 334 332 331 330 326 321 319 316 315 317
173 184 172 256 306 309 324 352 342 332 202 225 235 196 206 220 216 228 35 100 250 223 172 216 257 258 294 13 11 100 160 180 192 198 193 184 186 189 190 192 196 199 202 215 239 262 277 301 315 318 323 328 332 334 335 334 334 334 335 336 337 336 335 334 333 332 332 333 332 333 334 334 334 335 336 336 335 334 333 332 327 321 321 320 315 315
176 193 167 183 247 258 261 267 238 222 206 208 224 211 215 216 207 209 219 220 241 225 184 225 254 258 269 33 284 225 181 183 192 189 189 189 187 188 189 191 194 196 201 216 233 246 270 302 311 315 324 330 334 335 334 334 335 334 336 337 337 336 335 334 333 333 333 333 333 333 334 335 336 337 338 337 336 336 334 332 327 318 315 319 320 316
146 225 201 202 218 232 250 256 195 132 184 222 222 212 209 209 206 205 226 233 233 227 235 240 245 258 265 248 213 229 200 188 193 185 189 191 188 188 190 192 194 195 203 217 224 237 266 292 306 317 328 332 335 335 334 335 336 335 336 336 337 337 335 334 333 333 334 334 333 333 334 337 338 339 339 338 336 336 334 331 328 323 315 316 322 322
100 239 219 214 227 236 248 253 216 154 238 251 253 236 210 197 201 205 222 232 217 156 252 251 244 252 261 252 215 216 209 198 197 191 192 192 188 188 190 191 192 195 204 214 213 226 257 284 308 325 333 334 335 334 334 337 337 336 336 336 337 336 335 334 334 334 334 334 333 335 337 338 340 340 340 339 337 337 336 333 330 330 325 319 321 324
127 241 226 204 232 244 250 255 248 238 255 263 266 257 226 188 198 212 227 232 220 215 246 257 256 254 260 256 225 211 204 201 204 201 197 193 187 186 187 187 190 195 203 208 207 220 252 293 320 332 336 336 335 334 336 338 338 337 336 336 337 336 335 335 335 334 334 334 335 337 339 340 341 342 340 339 338 336 336 333 328 327 329 326 324 325
154 246 237 200 235 253 252 253 252 251 260 266 263 259 240 210 214 220 232 236 230 233 246 257 263 263 265 261 247 226 208 206 208 201 193 187 183 184 187 187 190 197 203 201 203 219 261 314 332 335 335 337 336 336 337 338 338 337 336 336 337 336 336 335 335 335 335 336 338 339 341 341 341 342 341 339 338 337 336 335 333 332 332 331 328 326
194 239 245 177 237 263 258 250 237 241 252 259 262 261 246 232 235 232 236 240 237 240 246 252 260 266 267 264 260 239 209 200 197 190 186 186 186 186 186 188 192 198 199 197 201 223 292 322 335 338 336 338 338 337 337 337 337 336 335 336 336 335 336 336 335 337 338 338 340 341 342 343 341 341 341 339 339 339 338 337 337 337 335 332 329 326
203 228 45 109 231 261 263 241 198 247 269 263 265 264 247 233 238 233 231 234 231 235 245 251 254 258 264 268 257 219 193 183 185 185 185 189 189 187 186 190 195 198 194 191 200 228 305 319 333 341 339 339 338 337 336 336 336 336 335 335 336 336 337 337 337 338 339 340 342 343 343 343 341 340 341 341 341 341 340 338 337 337 337 333 329 325
179 195 157 139 228 260 271 98 112 85 302 266 263 257 232 223 231 235 236 237 232 228 237 244 242 248 258 270 224 214 187 183 192 188 187 189 189 188 190 193 195 195 190 187 199 222 284 326 338 340 338 339 337 335 336 335 334 334 334 335 336 336 337 338 339 339 340 342 343 344 344 343 340 341 342 343 343 341 341 341 340 339 339 335 329 325
181 195 197 171 215 255 159 103 104 154 252 264 266 197 196 204 216 226 233 238 235 224 224 237 248 255 260 251 239 223 192 201 205 198 196 194 190 190 193 195 193 189 186 186 196 215 257 334 344 340 335 335 334 334 334 334 332 333 334 335 336 337 338 339 340 341 342 343 344 344 344 343 340 341 344 345 345 344 343 343 342 340 340 336 330 326
182 193 201 186 205 239 121 97 182 229 241 261 49 156 193 196 204 217 232 243 241 228 226 239 250 255 254 249 246 227 208 213 211 203 200 198 196 192 189 189 187 182 183 186 191 204 245 328 338 339 333 331 333 333 333 332 332 333 334 335 336 338 339 340 341 342 343 343 344 345 345 343 341 343 346 347 347 345 344 344 343 342 341 337 331 328
179 183 194 178 171 212 145 173 224 252 288 296 276 187 166 181 184 204 249 258 247 228 226 235 244 251 252 253 251 229 204 201 197 198 200 199 198 193 187 186 183 179 181 184 185 194 220 334 328 331 330 329 331 331 331 331 332 334 335 337 338 339 341 342 342 344 344 344 345 346 346 344 343 345 348 350 349 346 344 344 344 343 341 337 333 330
176 178 203 201 195 215 222 226 240 289 305 290 271 213 161 192 180 170 252 270 254 211 217 230 242 249 250 246 209 160 152 147 147 196 197 191 189 190 189 186 179 175 180 182 183 190 199 333 325 325 325 327 329 329 330 332 332 334 336 337 339 340 342 343 344 344 345 345 345 346 347 346 346 347 349 351 350 347 345 345 344 344 342 338 335 333
195 195 204 206 212 216 227 246 255 265 271 269 265 219 181 173 160 144 221 278 266 200 203 219 233 241 241 163 139 140 138 139 195 210 191 182 179 182 181 177 173 176 182 183 185 184 187 304 313 317 320 324 328 327 329 332 333 335 337 338 340 342 343 344 346 345 344 345 346 347 348 348 347 350 351 352 351 348 346 344 342 341 340 339 336 334
214 221 214 215 227 212 217 240 234 237 254 252 148 139 138 130 128 103 60 280 262 195 195 207 221 229 208 149 155 148 139 185 240 212 188 181 180 179 176 174 175 179 181 182 186 189 207 282 301 311 318 322 324 326 329 332 334 335 337 340 341 342 344 346 346 345 345 346 347 348 349 349 349 352 354 353 351 349 345 342 339 338 339 339 337 335
209 216 200 217 229 219 219 235 234 249 257 224 131 155 147 133 122 88 329 267 241 174 190 198 208 214 176 156 161 158 174 210 233 203 185 181 179 179 179 179 179 180 180 181 183 195 218 268 295 304 315 320 323 327 329 331 334 336 338 341 342 343 346 346 345 345 346 346 347 348 350 351 351 354 355 354 352 350 346 343 340 338 339 339 338 336
206 200 196 217 228 226 225 234 248 262 248 176 140 161 152 126 104 104 250 235 170 172 196 192 197 199 172 162 170 186 206 217 221 182 178 176 175 177 179 182 182 180 180 185 190 207 225 262 291 301 313 319 322 327 329 331 335 337 339 342 343 345 346 346 345 346 346 347 348 349 351 353 354 356 357 356 354 351 349 347 344 341 342 342 340 340
182 173 214 225 225 227 231 233 259 273 236 152 151 164 154 136 214 236 214 155 151 177 194 191 196 193 178 179 189 196 201 201 177 168 171 172 175 178 180 182 181 179 183 190 199 213 227 261 291 300 311 319 322 325 328 332 336 338 340 343 344 345 346 346 346 346 346 347 348 350 352 355 357 358 358 359 357 353 351 350 348 346 346 346 347 349
171 157 201 216 197 181 226 208 231 270 201 147 145 157 164 191 230 203 145 134 166 179 184 188 195 193 186 189 192 191 185 172 165 167 169 172 177 178 180 183 180 183 190 193 202 217 230 263 287 299 309 318 323 324 328 334 337 340 341 343 344 345 345 346 347 347 347 348 349 351 354 356 359 0 360 1 1 357 353 353 352 351 351 351 353 354
173 177 196 212 181 148 193 204 210 261 165 154 155 173 201 208 216 183 158 169 177 179 181 184 193 197 195 191 185 180 173 163 163 167 168 172 178 179 180 183 182 189 196 197 207 221 236 262 281 298 311 318 323 325 329 335 339 341 342 343 344 345 345 347 348 347 348 350 350 352 355 358 1 2 1 4 5 1 356 356 356 354 354 356 358 357
199 195 187 201 187 178 209 216 197 142 166 176 185 201 203 207 215 203 183 182 178 182 185 184 192 199 197 192 183 176 171 166 167 170 171 175 180 181 182 185 187 193 198 202 211 222 238 259 278 299 311 318 324 326 330 336 340 342 343 343 344 345 345 347 349 349 349 351 352 353 355 359 3 4 3 6 10 7 0 358 360 359 357 359 0 359
217 198 145 112 198 218 253 251 215 173 180 193 205 220 217 209 211 207 198 189 183 187 187 187 197 199 193 191 186 177 175 175 173 175 178 179 181 183 186 189 193 197 201 205 213 224 239 260 283 301 311 319 324 327 333 339 341 342 344 344 344 345 346 348 349 350 351 352 354 356 357 360 3 5 5 7 12 14 8 3 3 4 1 1 1 0
228 187 185 210 185 203 249 248 222 212 208 202 209 220 225 219 211 208 208 202 193 192 190 191 200 199 193 193 190 183 182 182 178 179 183 183 184 187 190 194 198 201 204 208 215 224 239 262 286 301 312 320 323 328 336 340 341 343 344 343 344 345 348 349 350 352 353 354 356 357 360 1 2 4 6 8 11 15 15 10 8 7 5 4 2 360
187 166 186 223 212 211 238 242 195 218 224 216 213 218 220 217 212 209 210 210 201 194 194 196 198 198 194 193 192 188 186 187 186 186 186 187 190 193 195 200 203 203 204 208 215 226 240 261 283 300 312 319 323 331 338 340 342 344 343 344 345 346 349 351 353 354 355 356 357 360 2 4 3 4 7 9 11 14 16 16 14 12 11 10 5 358
144 156 176 207 210 232 250 245 118 30 250 230 220 221 220 216 211 208 207 206 200 192 193 198 200 202 199 193 190 190 192 193 194 194 192 192 195 197 199 202 203 204 206 209 215 227 241 258 280 299 312 319 325 334 340 341 343 344 344 345 347 347 350 352 354 356 358 358 359 2 4 5 5 6 8 9 11 14 17 20 21 18 16 16 13 5
157 191 180 164 201 232 245 233 197 192 250 236 220 219 219 213 209 206 202 198 197 195 194 196 198 201 200 195 191 194 198 199 198 198 199 200 201 202 203 203 203 204 206 210 217 226 238 255 279 300 312 321 328 335 340 343 344 345 346 347 348 349 351 353 355 357 359 360 1 4 6 6 7 9 10 11 11 11 14 21 27 27 24 22 20 18
197 206 185 183 218 231 237 230 206 196 232 245 228 217 212 207 206 205 202 200 199 197 195 196 196 194 193 194 195 199 203 204 201 200 202 203 204 204 204 205 206 207 206 210 218 224 234 253 278 300 312 321 330 336 341 343 345 346 347 349 351 352 352 354 356 358 0 1 3 6 7 8 8 10 12 14 13 11 11 14 21 29 32 30 26 23
Height
1529 1531 1532 1532 1532 1531 1531 1532 1532 1532 1534 1534 1535 1535 1535 1535 1530 1524 1524 1523 1523 1524 1520 1518 1519 1515 1515 1516 1516 1516 1518 1520 1521 1521 1520 1520 1519 1519 1519 1519 1518 1518 1518 1519 1518 1517 1517 1516 1515 1513 1511 1510 1509 1508 1506 1504 1501 1499 1498 1497 1496 1495 1492 1490 1486 1483 1481 1477 1473 1469 1466 1463 1461 1459 1456 1453 1452 1449 1446 1442 1439 1436 1433 1432 1430 1429
1530 1533 1531 1529 1528 1529 1530 1532 1532 1532 1533 1533 1535 1535 1534 1536 1531 1523 1523 1523 1523 1524 1519 1517 1518 1515 1513 1513 1513 1514 1516 1515 1515 1515 1515 1515 1516 1516 1516 1516 1516 1516 1517 1517 1516 1515 1514 1513 1511 1510 1508 1508 1507 1506 1503 1501 1499 1498 1497 1496 1495 1493 1491 1488 1485 1482 1480 1477 1473 1468 1465 1461 1457 1455 1452 1448 1446 1443 1440 1437 1435 1432 1429 1426 1424 1423
1533 1532 1527 1526 1528 1529 1530 1531 1532 1532 1533 1534 1536 1537 1535 1534 1531 1524 1523 1524 1524 1524 1519 1516 1517 1514 1511 1510 1510 1511 1510 1509 1509 1509 1509 1509 1511 1512 1512 1512 1513 1514 1514 1514 1513 1512 1511 1510 1508 1508 1507 1507 1505 1504 1501 1499 1498 1496 1495 1495 1493 1491 1489 1486 1484 1481 1478 1475 1473 1469 1465 1461 1455 1452 1449 1445 1442 1439 1436 1433 1431 1428 1425 1422 1419 1418
1533 1528 1525 1526 1527 1529 1530 1532 1532 1533 1534 1534 1535 1537 1533 1531 1531 1526 1523 1525 1524 1524 1521 1518 1515 1513 1511 1507 1505 1506 1506 1507 1508 1508 1508 1508 1507 1507 1508 1509 1509 1510 1510 1510 1510 1509 1508 1507 1507 1507 1506 1505 1503 1501 1499 1498 1496 1495 1494 1493 1491 1489 1487 1484 1481 1479 1476 1473 1470 1467 1464 1461 1456 1451 1448 1443 1439 1436 1432 1429 1427 1424 1421 1418 1415 1413
1529 1524 1525 1526 1527 1529 1530 1532 1533 1533 1533 1532 1533 1534 1530 1527 1529 1526 1527 1527 1524 1522 1521 1518 1512 1506 1506 1502 1498 1502 1505 1506 1506 1507 1507 1507 1506 1506 1506 1506 1506 1507 1507 1506 1506 1506 1505 1505 1505 1505 1504 1502 1501 1499 1497 1496 1495 1493 1493 1491 1489 1487 1484 1482 1479 1476 1473 1469 1466 1462 1459 1455 1451 1447 1443 1439 1434 1431 1427 1422 1420 1418 1416 1413 1410 1408
1525 1524 1525 1526 1528 1529 1530 1530 1532 1532 1534 1533 1529 1527 1526 1525 1526 1527 1529 1528 1526 1524 1521 1521 1514 1501 1499 1501 1497 1502 1505 1504 1504 1504 1503 1503 1503 1503 1503 1503 1504 1504 1503 1503 1503 1503 1503 1503 1503 1502 1502 1500 1499 1498 1497 1495 1493 1492 1490 1489 1487 1484 1482 1479 1476 1473 1470 1467 1463 1459 1454 1449 1444 1439 1436 1434 1430 1426 1422 1418 1414 1413 1411 1408 1404 1402
1525 1525 1525 1526 1527 1529 1530 1530 1530 1531 1535 1535 1527 1524 1526 1526 1527 1528 1529 1529 1527 1526 1523 1525 1524 1509 1499 1496 1494 1499 1502 1501 1502 1501 1500 1500 1499 1498 1498 1499 1500 1500 1500 1500 1500 1501 1501 1501 1501 1501 1500 1499 1498 1497 1495 1493 1491 1489 1487 1486 1484 1481 1479 1476 1473 1471 1468 1464 1461 1457 1453 1449 1445 1439 1434 1431 1428 1424 1420 1415 1411 1407 1405 1403 1400 1398
1523 1526 1526 1526 1527 1529 1530 1528 1528 1530 1533 1532 1527 1526 1527 1526 1528 1528 1529 1531 1529 1530 1526 1523 1527 1520 1505 1493 1490 1494 1498 1499 1500 1499 1497 1495 1494 1493 1495 1496 1496 1497 1497 1497 1498 1499 1499 1499 1499 1499 1498 1498 1497 1494 1493 1491 1488 1487 1485 1483 1481 1479 1476 1474 1471 1469 1466 1462 1458 1455 1451 1447 1444 1440 1434 1429 1425 1421 1416 1411 1407 1403 1400 1398 1397 1394
1521 1523 1524 1525 1527 1528 1526 1524 1525 1527 1528 1526 1526 1528 1527 1527 1529 1528 1530 1532 1533 1535 1526 1518 1525 1524 1503 1490 1491 1495 1496 1496 1494 1493 1491 1489 1489 1490 1491 1493 1493 1494 1494 1495 1496 1496 1497 1498 1497 1497 1497 1496 1494 1492 1490 1488 1486 1484 1482 1479 1478 1476 1473 1471 1469 1466 1463 1460 1456 1452 1448 1443 1440 1436 1432 1427 1422 1417 1412 1406 1402 1399 1395 1393 1391 1389
1520 1521 1521 1522 1524 1523 1521 1522 1524 1525 1525 1525 1527 1528 1528 1529 1530 1530 1533 1533 1537 1538 1523 1513 1521 1519 1495 1482 1492 1499 1495 1488 1484 1484 1485 1483 1485 1487 1488 1489 1490 1491 1492 1493 1494 1495 1495 1496 1495 1494 1494 1493 1491 1489 1487 1485 1483 1481 1477 1476 1474 1473 1470 1468 1466 1463 1460 1457 1453 1449 1445 1440 1436 1432 1427 1422 1418 1413 1409 1403 1398 1394 1391 1387 1385 1382
1519 1520 1520 1520 1519 1518 1519 1524 1525 1525 1525 1525 1528 1527 1527 1530 1531 1534 1536 1535 1538 1529 1512 1507 1512 1513 1497 1479 1483 1487 1477 1472 1472 1477 1481 1481 1483 1484 1484 1486 1487 1488 1490 1491 1492 1493 1493 1492 1492 1491 1490 1489 1488 1486 1484 1482 1479 1476 1473 1472 1471 1470 1467 1464 1462 1459 1457 1454 1450 1446 1442 1438 1433 1428 1423 1418 1413 1409 1404 1399 1394 1390 1386 1382 1379 1376
1520 1520 1519 1517 1516 1517 1519 1523 1525 1526 1526 1525 1528 1528 1526 1526 1529 1533 1535 1537 1533 1513 1502 1508 1512 1515 1502 1476 1472 1472 1463 1462 1466 1468 1471 1473 1476 1479 1480 1482 1484 1485 1487 1488 1489 1489 1489 1489 1489 1488 1487 1486 1484 1483 1482 1478 1474 1472 1471 1469 1468 1466 1464 1461 1459 1456 1453 1450 1447 1443 1439 1435 1431 1426 1421 1416 1410 1406 1401 1396 1391 1386 1381 1376 1374 1371
1517 1516 1518 1516 1515 1516 1517 1521 1526 1526 1526 1527 1529 1530 1529 1528 1528 1527 1526 1528 1523 1506 1504 1513 1513 1510 1491 1466 1464 1465 1459 1461 1461 1458 1460 1463 1468 1473 1476 1478 1480 1483 1484 1485 1486 1486 1486 1486 1485 1485 1484 1482 1481 1480 1477 1473 1470 1469 1468 1466 1464 1462 1460 1457 1455 1452 1449 1446 1443 1439 1435 1431 1427 1423 1419 1414 1408 1404 1399 1393 1388 1382 1377 1372 1368 1365
1514 1513 1517 1515 1513 1513 1513 1516 1520 1521 1525 1528 1526 1525 1526 1530 1530 1524 1520 1519 1513 1502 1505 1515 1511 1499 1478 1460 1459 1456 1453 1457 1457 1455 1456 1458 1463 1467 1471 1475 1477 1479 1481 1481 1483 1483 1483 1483 1482 1482 1480 1479 1478 1475 1471 1468 1467 1467 1465 1463 1461 1458 1456 1454 1451 1448 1445 1442 1438 1435 1431 1428 1424 1419 1415 1411 1405 1400 1395 1390 1385 1379 1374 1369 1363 1360
1516 1510 1508 1509 1508 1509 1510 1511 1511 1515 1522 1526 1524 1523 1522 1523 1524 1520 1514 1509 1503 1500 1506 1515 1507 1484 1464 1456 1457 1455 1454 1455 1454 1454 1455 1457 1462 1466 1469 1473 1474 1476 1477 1478 1479 1480 1480 1480 1479 1479 1478 1477 1474 1469 1466 1466 1465 1464 1462 1460 1457 1455 1452 1449 1446 1443 1440 1437 1434 1431 1427 1424 1420 1415 1410 1406 1401 1396 1391 1386 1381 1376 1371 1365 1360 1355
1519 1508 1503 1508 1507 1508 1509 1510 1512 1513 1518 1524 1526 1524 1520 1515 1514 1514 1513 1511 1512 1511 1508 1505 1491 1467 1456 1455 1456 1457 1455 1454 1453 1453 1455 1458 1461 1465 1467 1469 1471 1472 1474 1475 1476 1477 1477 1477 1476 1476 1475 1473 1468 1465 1464 1464 1463 1461 1459 1457 1454 1452 1449 1446 1442 1439 1436 1432 1429 1426 1422 1418 1414 1410 1405 1400 1396 1391 1386 1381 1376 1371 1366 1361 1355 1350
1512 1506 1506 1510 1508 1510 1511 1509 1512 1510 1511 1521 1524 1518 1515 1516 1512 1511 1516 1520 1524 1517 1497 1486 1475 1459 1454 1451 1452 1457 1455 1454 1457 1454 1454 1457 1459 1462 1464 1465 1468 1470 1471 1472 1473 1474 1474 1474 1474 1473 1472 1467 1463 1462 1462 1462 1460 1458 1456 1453 1450 1448 1445 1442 1438 1435 1431 1427 1424 1420 1417 1413 1409 1405 1400 1395 1390 1385 1381 1376 1371 1366 1360 1356 1351 1345
1505 1502 1505 1509 1506 1509 1512 1510 1512 1511 1510 1517 1518 1511 1512 1517 1515 1515 1519 1520 1523 1516 1492 1479 1471 1457 1451 1449 1451 1459 1457 1454 1457 1455 1456 1458 1458 1460 1461 1462 1466 1467 1469 1470 1470 1472 1472 1471 1471 1470 1466 1462 1461 1462 1461 1459 1458 1455 1453 1450 1447 1444 1441 1438 1434 1430 1427 1423 1419 1415 1411 1408 1404 1399 1395 1389 1384 1380 1374 1369 1365 1360 1354 1350 1345 1340
1505 1501 1504 1513 1511 1510 1513 1511 1510 1512 1512 1512 1512 1512 1512 1512 1513 1517 1522 1516 1515 1513 1490 1474 1468 1451 1442 1443 1445 1452 1454 1451 1454 1456 1456 1456 1456 1457 1458 1461 1464 1465 1466 1468 1468 1469 1469 1469 1468 1464 1460 1459 1460 1460 1458 1456 1454 1452 1450 1447 1443 1441 1437 1434 1430 1426 1423 1419 1415 1411 1407 1403 1399 1394 1389 1384 1379 1374 1368 1363 1358 1353 1348 1343 1339 1335
1504 1502 1502 1512 1515 1512 1512 1512 1507 1508 1513 1514 1513 1514 1512 1511 1510 1511 1514 1508 1506 1507 1489 1475 1467 1442 1427 1430 1430 1438 1446 1445 1450 1454 1453 1452 1451 1453 1456 1458 1460 1462 1463 1465 1466 1467 1466 1465 1462 1459 1458 1458 1458 1457 1454 1452 1450 1448 1446 1443 1440 1437 1433 1430 1427 1422 1418 1415 1411 1406 1402 1398 1394 1389 1384 1379 1374 1368 1363 1358 1353 1347 1343 1337 1333 1329
1503 1504 1501 1510 1519 1513 1505 1502 1498 1497 1505 1511 1513 1513 1511 1511 1510 1508 1507 1501 1500 1504 1495 1488 1473 1434 1418 1424 1422 1427 1437 1437 1443 1447 1446 1447 1448 1450 1453 1454 1456 1459 1460 1462 1463 1463 1462 1460 1458 1456 1457 1456 1455 1453 1451 1448 1447 1444 1442 1439 1436 1433 1429 1425 1422 1418 1414 1410 1407 1402 1397 1393 1388 1383 1379 1373 1368 1363 1357 1352 1348 1342 1337 1332 1327 1323
1499 1501 1500 1505 1511 1504 1493 1492 1493 1491 1493 1497 1500 1501 1500 1502 1506 1507 1503 1496 1497 1496 1487 1488 1469 1422 1411 1426 1422 1424 1432 1432 1437 1441 1440 1443 1445 1447 1450 1451 1454 1456 1457 1459 1458 1458 1457 1455 1455 1455 1455 1454 1452 1450 1448 1445 1443 1440 1438 1435 1432 1429 1426 1421 1418 1414 1410 1406 1403 1398 1393 1388 1384 1379 1374 1368 1362 1357 1352 1347 1342 1336 1331 1325 1320 1317
1493 1497 1497 1495 1493 1493 1492 1493 1494 1493 1491 1492 1492 1490 1492 1495 1498 1498 1493 1489 1496 1490 1481 1491 1472 1419 1410 1427 1424 1423 1428 1428 1433 1435 1435 1440 1441 1443 1446 1448 1451 1453 1453 1455 1454 1454 1454 1453 1453 1453 1452 1452 1449 1446 1445 1442 1439 1437 1434 1432 1428 1425 1422 1418 1414 1410 1406 1403 1398 1394 1389 1384 1379 1374 1369 1363 1357 1352 1347 1341 1336 1331 1325 1319 1314 1311
1491 1493 1494 1489 1483 1487 1494 1496 1495 1494 1494 1493 1489 1488 1488 1485 1482 1482 1482 1484 1489 1482 1482 1495 1472 1422 1413 1427 1424 1425 1427 1426 1430 1431 1432 1437 1438 1440 1444 1444 1447 1449 1449 1451 1450 1451 1451 1451 1451 1451 1449 1449 1446 1443 1442 1438 1436 1434 1431 1428 1425 1421 1418 1414 1411 1407 1403 1399 1394 1390 1385 1380 1375 1370 1364 1358 1352 1346 1342 1336 1330 1326 1321 1315 1309 1305
1486 1487 1490 1492 1490 1486 1487 1491 1492 1493 1494 1490 1483 1483 1482 1477 1478 1481 1483 1489 1485 1471 1476 1484 1455 1418 1419 1429 1425 1425 1428 1426 1429 1430 1430 1434 1435 1436 1440 1441 1443 1445 1445 1447 1447 1448 1449 1448 1448 1448 1447 1445 1442 1440 1438 1435 1433 1430 1427 1425 1421 1418 1414 1411 1407 1403 1399 1395 1390 1385 1381 1376 1371 1365 1359 1353 1347 1342 1337 1331 1325 1320 1315 1310 1305 1300
1477 1480 1481 1487 1491 1484 1473 1470 1472 1476 1484 1485 1480 1479 1477 1476 1479 1478 1480 1486 1476 1464 1470 1468 1440 1417 1420 1429 1426 1425 1428 1427 1427 1429 1430 1430 1432 1433 1436 1438 1439 1441 1442 1443 1444 1445 1445 1445 1445 1445 1443 1441 1439 1436 1435 1432 1430 1427 1424 1422 1418 1414 1411 1407 1403 1400 1395 1391 1386 1381 1377 1372 1366 1360 1354 1348 1342 1336 1331 1326 1321 1316 1310 1305 1300 1295
1474 1476 1472 1470 1473 1468 1456 1452 1457 1464 1470 1472 1470 1471 1472 1472 1474 1475 1477 1471 1462 1465 1463 1443 1428 1420 1414 1419 1426 1424 1425 1426 1424 1427 1428 1428 1429 1430 1432 1434 1435 1437 1439 1439 1441 1441 1441 1442 1442 1441 1439 1437 1435 1433 1431 1429 1427 1424 1421 1418 1415 1412 1407 1404 1400 1396 1392 1387 1383 1378 1372 1367 1361 1355 1349 1343 1337 1332 1326 1321 1317 1311 1305 1299 1295 1291
1472 1470 1465 1465 1462 1454 1447 1448 1456 1460 1458 1456 1456 1457 1463 1469 1471 1473 1467 1451 1452 1468 1451 1419 1421 1425 1407 1407 1419 1419 1420 1422 1420 1422 1422 1422 1425 1426 1428 1431 1432 1434 1435 1436 1437 1437 1438 1438 1438 1436 1434 1432 1431 1430 1428 1427 1424 1421 1418 1415 1412 1409 1404 1401 1397 1392 1388 1384 1379 1374 1368 1362 1356 1350 1344 1339 1333 1327 1322 1315 1310 1304 1300 1294 1289 1285
1470 1462 1457 1463 1461 1452 1448 1450 1455 1457 1455 1453 1448 1444 1452 1464 1466 1461 1453 1443 1448 1455 1432 1407 1415 1417 1399 1399 1409 1410 1412 1415 1413 1415 1416 1417 1421 1423 1425 1428 1429 1430 1431 1432 1433 1434 1434 1434 1432 1431 1430 1428 1427 1426 1424 1423 1421 1418 1415 1412 1409 1405 1401 1397 1393 1389 1384 1380 1374 1368 1362 1357 1351 1345 1340 1335 1329 1323 1317 1312 1306 1299 1294 1290 1285 1280
1466 1457 1454 1459 1458 1452 1450 1452 1456 1457 1456 1454 1442 1433 1443 1454 1453 1449 1445 1440 1441 1438 1421 1411 1413 1404 1389 1391 1400 1402 1405 1407 1408 1411 1413 1415 1418 1420 1422 1423 1424 1426 1427 1428 1430 1430 1429 1429 1427 1426 1426 1424 1424 1422 1421 1420 1418 1414 1412 1408 1405 1402 1398 1394 1389 1385 1380 1375 1369 1363 1358 1352 1346 1341 1336 1331 1325 1319 1313 1308 1301 1294 1288 1284 1280 1276
1463 1457 1455 1458 1458 1452 1446 1450 1456 1456 1456 1453 1435 1424 1436 1445 1442 1442 1439 1433 1435 1432 1418 1415 1418 1402 1381 1382 1393 1399 1400 1403 1406 1408 1410 1412 1414 1415 1417 1419 1420 1422 1424 1425 1426 1425 1424 1424 1423 1422 1422 1421 1420 1419 1418 1416 1414 1411 1408 1405 1402 1398 1395 1390 1385 1381 1376 1370 1365 1359 1354 1348 1343 1338 1333 1327 1321 1315 1308 1302 1295 1290 1284 1279 1274 1271
1462 1460 1457 1461 1462 1450 1443 1452 1457 1456 1462 1457 1431 1418 1432 1439 1431 1428 1426 1422 1422 1420 1414 1419 1419 1396 1375 1379 1391 1394 1395 1399 1402 1403 1406 1408 1409 1411 1412 1415 1417 1419 1420 1421 1421 1421 1421 1420 1420 1419 1418 1418 1418 1416 1415 1413 1411 1408 1405 1402 1399 1394 1391 1387 1382 1377 1372 1367 1362 1356 1351 1345 1340 1335 1330 1323 1317 1310 1304 1298 1291 1285 1280 1275 1270 1266
1457 1456 1455 1462 1460 1447 1449 1460 1460 1462 1464 1443 1411 1403 1415 1422 1418 1416 1415 1410 1406 1408 1412 1413 1398 1377 1374 1383 1389 1389 1393 1395 1395 1396 1399 1402 1404 1407 1408 1411 1414 1415 1416 1417 1417 1417 1418 1417 1416 1416 1415 1416 1415 1414 1412 1410 1407 1405 1402 1399 1395 1391 1388 1383 1379 1374 1369 1364 1359 1353 1348 1343 1337 1331 1326 1319 1313 1306 1300 1293 1285 1280 1275 1269 1265 1261
1453 1450 1451 1454 1449 1446 1457 1464 1463 1465 1447 1408 1389 1393 1398 1401 1406 1409 1405 1396 1392 1397 1400 1392 1378 1371 1378 1383 1382 1385 1388 1388 1388 1389 1391 1394 1398 1402 1405 1408 1410 1411 1412 1413 1414 1415 1415 1414 1414 1414 1413 1413 1413 1411 1410 1408 1405 1403 1400 1396 1393 1389 1385 1380 1376 1371 1366 1361 1356 1351 1346 1340 1334 1328 1322 1315 1309 1302 1295 1287 1280 1274 1270 1264 1260 1256
1447 1449 1450 1448 1447 1451 1461 1466 1462 1445 1411 1386 1390 1396 1391 1391 1396 1399 1395 1385 1382 1388 1390 1385 1377 1372 1374 1377 1377 1381 1383 1382 1385 1387 1387 1391 1393 1395 1401 1404 1406 1408 1409 1410 1411 1411 1411 1411 1411 1412 1412 1411 1410 1408 1407 1405 1403 1401 1398 1394 1390 1386 1382 1377 1372 1368 1363 1358 1354 1349 1343 1337 1331 1324 1318 1311 1304 1297 1290 1284 1276 1270 1265 1261 1256 1252
1437 1445 1445 1445 1449 1451 1456 1458 1439 1408 1385 1381 1389 1391 1391 1394 1396 1399 1394 1378 1373 1381 1383 1380 1374 1368 1369 1374 1375 1378 1381 1383 1385 1387 1387 1389 1390 1392 1397 1399 1401 1404 1406 1407 1408 1408 1408 1409 1409 1410 1409 1408 1407 1406 1404 1403 1400 1397 1394 1391 1387 1383 1378 1374 1369 1364 1360 1355 1351 1346 1341 1334 1327 1321 1314 1307 1300 1292 1286 1279 1272 1266 1261 1256 1252 1249
1430 1436 1437 1439 1439 1434 1436 1434 1418 1405 1395 1380 1373 1380 1386 1386 1387 1393 1388 1368 1359 1369 1374 1372 1370 1366 1367 1372 1375 1379 1382 1385 1387 1388 1386 1387 1389 1392 1395 1396 1399 1401 1402 1404 1405 1405 1406 1406 1406 1407 1407 1406 1405 1404 1402 1400 1397 1394 1391 1387 1384 1379 1375 1371 1366 1361 1357 1353 1348 1344 1338 1332 1324 1317 1311 1304 1297 1289 1283 1275 1268 1263 1259 1254 1249 1245
1424 1425 1427 1431 1426 1421 1425 1421 1416 1418 1402 1373 1365 1375 1377 1377 1379 1386 1388 1371 1355 1358 1365 1364 1363 1362 1365 1372 1377 1378 1381 1385 1386 1384 1382 1385 1388 1390 1393 1395 1397 1398 1399 1401 1402 1402 1403 1404 1404 1405 1404 1403 1403 1401 1399 1397 1394 1391 1388 1384 1380 1376 1372 1368 1363 1359 1355 1351 1346 1341 1336 1329 1322 1315 1308 1302 1295 1287 1279 1272 1266 1261 1258 1253 1248 1243
1424 1423 1423 1426 1422 1420 1423 1417 1411 1405 1382 1364 1370 1376 1375 1378 1378 1384 1391 1374 1349 1348 1356 1356 1357 1359 1362 1369 1373 1375 1380 1382 1377 1374 1376 1381 1384 1386 1389 1392 1393 1395 1396 1397 1398 1399 1400 1401 1402 1402 1402 1401 1400 1399 1397 1395 1392 1389 1385 1381 1378 1373 1369 1365 1361 1357 1353 1348 1344 1339 1334 1328 1321 1314 1307 1300 1293 1286 1278 1272 1266 1261 1257 1253 1247 1242
1424 1424 1426 1426 1416 1412 1414 1410 1403 1392 1372 1365 1374 1378 1377 1377 1376 1387 1389 1361 1339 1345 1351 1349 1353 1356 1358 1365 1370 1372 1374 1370 1365 1365 1372 1377 1381 1384 1387 1388 1390 1392 1393 1394 1395 1396 1398 1399 1400 1399 1399 1399 1397 1396 1394 1392 1389 1386 1382 1379 1375 1371 1367 1363 1359 1355 1351 1346 1342 1337 1332 1326 1319 1313 1307 1299 1292 1286 1279 1272 1265 1259 1255 1250 1245 1240
1422 1421 1421 1417 1408 1406 1408 1405 1399 1384 1367 1367 1376 1376 1376 1378 1381 1385 1369 1341 1336 1347 1346 1346 1351 1352 1355 1361 1364 1364 1363 1361 1360 1364 1369 1374 1379 1381 1384 1386 1387 1388 1390 1391 1392 1394 1396 1397 1397 1397 1397 1396 1395 1393 1391 1389 1386 1383 1379 1376 1372 1368 1365 1362 1358 1354 1349 1345 1340 1336 1330 1325 1318 1311 1306 1300 1292 1285 1278 1272 1264 1258 1253 1248 1243 1238
1414 1417 1415 1411 1407 1406 1403 1402 1402 1383 1358 1360 1372 1372 1373 1377 1374 1361 1340 1331 1338 1343 1341 1345 1348 1347 1352 1356 1356 1357 1358 1359 1362 1364 1367 1372 1375 1377 1380 1382 1383 1385 1386 1388 1390 1392 1393 1394 1394 1395 1394 1393 1392 1390 1389 1387 1383 1380 1376 1373 1369 1366 1363 1360 1356 1351 1347 1343 1338 1334 1329 1323 1317 1310 1305 1299 1291 1284 1276 1270 1264 1258 1253 1247 1241 1236
1393 1404 1407 1400 1397 1402 1404 1407 1405 1378 1347 1348 1365 1370 1369 1362 1346 1333 1330 1335 1338 1336 1339 1344 1344 1345 1350 1351 1353 1357 1358 1359 1362 1363 1366 1370 1372 1374 1377 1378 1380 1382 1383 1386 1388 1389 1391 1392 1392 1392 1392 1391 1390 1388 1386 1384 1380 1377 1374 1370 1367 1364 1361 1358 1354 1350 1346 1341 1336 1332 1327 1321 1315 1310 1304 1298 1291 1283 1275 1268 1262 1256 1252 1247 1240 1236
1377 1383 1386 1380 1378 1389 1396 1389 1371 1347 1335 1340 1346 1345 1342 1334 1324 1325 1331 1334 1334 1335 1338 1340 1341 1344 1346 1347 1351 1355 1355 1358 1361 1362 1365 1369 1370 1373 1375 1375 1377 1380 1381 1384 1386 1387 1388 1390 1390 1390 1389 1388 1388 1386 1383 1381 1378 1374 1371 1367 1365 1362 1359 1356 1352 1348 1344 1339 1334 1330 1325 1320 1315 1309 1303 1297 1290 1282 1274 1267 1260 1255 1251 1246 1241 1236
1354 1351 1354 1357 1358 1359 1356 1346 1334 1330 1334 1335 1327 1321 1324 1324 1324 1327 1328 1327 1331 1334 1334 1336 1339 1341 1343 1345 1349 1351 1353 1357 1359 1360 1364 1366 1367 1370 1372 1372 1375 1377 1379 1382 1383 1384 1387 1387 1387 1387 1386 1385 1385 1383 1380 1378 1375 1372 1369 1365 1362 1360 1356 1353 1350 1346 1342 1337 1333 1328 1323 1318 1314 1308 1302 1297 1290 1282 1274 1266 1260 1255 1250 1245 1241 1236
1341 1343 1345 1346 1348 1345 1335 1326 1327 1330 1331 1328 1323 1322 1323 1323 1324 1326 1325 1325 1329 1329 1331 1334 1336 1337 1340 1343 1345 1348 1352 1354 1356 1360 1362 1363 1365 1368 1369 1370 1373 1375 1377 1379 1381 1382 1384 1384 1385 1385 1384 1383 1382 1380 1378 1375 1372 1369 1366 1363 1361 1358 1355 1352 1348 1344 1340 1336 1332 1327 1322 1316 1312 1307 1301 1296 1290 1284 1276 1268 1261 1256 1251 1246 1241 1237
1342 1345 1346 1343 1345 1344 1329 1315 1317 1323 1322 1321 1322 1320 1320 1321 1322 1323 1323 1324 1326 1327 1330 1332 1333 1334 1337 1339 1341 1346 1349 1350 1354 1357 1359 1361 1363 1364 1366 1368 1370 1372 1375 1377 1379 1380 1381 1381 1382 1382 1381 1381 1380 1377 1375 1373 1370 1367 1365 1362 1359 1357 1354 1351 1347 1343 1339 1335 1331 1326 1321 1315 1310 1305 1300 1294 1289 1284 1279 1271 1263 1257 1252 1246 1241 1237
1335 1340 1344 1341 1339 1332 1315 1305 1310 1316 1314 1314 1316 1314 1314 1317 1318 1319 1321 1322 1324 1327 1328 1330 1332 1333 1334 1336 1339 1342 1345 1348 1351 1353 1355 1358 1360 1361 1364 1366 1368 1370 1373 1374 1376 1378 1378 1379 1379 1379 1379 1378 1377 1375 1373 1370 1368 1366 1363 1360 1358 1355 1352 1350 1346 1342 1338 1334 1330 1325 1320 1315 1310 1304 1300 1295 1289 1284 1279 1272 1265 1259 1254 1249 1244 1240
1329 1333 1331 1330 1331 1325 1310 1303 1311 1316 1311 1309 1310 1307 1307 1310 1312 1315 1319 1320 1321 1324 1326 1329 1331 1331 1332 1335 1337 1339 1343 1346 1347 1349 1352 1354 1356 1358 1361 1363 1366 1369 1370 1372 1374 1375 1376 1376 1377 1376 1376 1376 1374 1373 1370 1368 1366 1363 1361 1358 1356 1353 1351 1348 1345 1342 1338 1333 1329 1325 1320 1315 1311 1305 1300 1295 1290 1286 1282 1276 1269 1262 1257 1253 1249 1245
1321 1320 1319 1323 1327 1316 1296 1289 1299 1307 1301 1295 1294 1296 1300 1305 1308 1311 1313 1315 1317 1319 1321 1325 1329 1331 1332 1333 1334 1337 1341 1343 1345 1347 1349 1350 1353 1356 1358 1361 1364 1366 1368 1370 1372 1372 1373 1374 1374 1374 1374 1373 1372 1370 1368 1366 1364 1361 1359 1357 1354 1351 1349 1347 1343 1341 1337 1333 1328 1324 1319 1315 1311 1306 1301 1295 1290 1285 1282 1279 1274 1268 1260 1255 1250 1246
1298 1297 1301 1306 1299 1284 1273 1275 1285 1291 1286 1279 1281 1288 1293 1298 1301 1303 1305 1308 1310 1313 1316 1320 1324 1328 1330 1331 1333 1336 1338 1339 1342 1344 1346 1348 1351 1354 1356 1359 1361 1363 1366 1368 1369 1370 1371 1371 1371 1371 1371 1370 1369 1367 1365 1363 1361 1359 1357 1355 1353 1351 1348 1345 1342 1339 1336 1332 1328 1323 1319 1315 1311 1306 1302 1297 1291 1286 1280 1275 1273 1270 1265 1258 1251 1245